Hourly Data Report for October 01, 2016

All times are specified in Local Standard Time (LST). Add 1 hour to adjust for Daylight Saving Time where and when it is observed.

IQALUIT CLIMATE
NUNAVUT

63°44'50.000" N
68°32'40.000" W
33.50 m
2402592
71321
XFB

Download Data

Hourly Data (October 2016)
Hourly Data Report for October 1, 2016
Temp Definition
°C
Dew Point Temp Definition
°C
Rel Hum Definition
%
Wind Dir Definition
10's deg

Wind Spd Definition
km/h
Visibility Definition
km
Stn Press Definition
kPa
Hmdx Definition


Wind Chill Definition


Weather Definition


TIME
00:00 -1.2 -2.2 92 33 12   100.84   -5 LegendNANA
01:00 -1.7 -2.4 95 33 12   100.90   -6 LegendNANA
02:00 -0.7 -1.2 96 33 8   100.98   -4 LegendNANA
03:00 -0.1 -0.6 97 32 21   101.03   -6 LegendNANA
04:00 -0.9 -1.7 95 31 17   101.10   -6 LegendNANA
05:00 -1.5 -2.3 94 32 12   101.19   -6 LegendNANA
06:00 -1.3 -2.1 95 33 12   101.23   -5 LegendNANA
07:00 -1.0 -1.8 94 31 14   101.27   -5 LegendNANA
08:00 -0.1 -1.3 92 31 18   101.33   -5 LegendNANA
09:00 0.9 -0.6 90 33 18   101.35     LegendNANA
10:00 1.7 -0.1 88 33 22   101.36     LegendNANA
11:00 1.6 -0.6 85 34 19   101.39     LegendNANA
12:00 1.9 -0.3 85 32 18   101.41     LegendNANA
13:00 2.6 -0.1 82 34 20   101.41     LegendNANA
14:00 2.5 0.2 85 33 21   101.43     LegendNANA
15:00 1.9 0.3 89 34 23   101.44     LegendNANA
16:00 1.9 -0.8 82 31 20   101.44     LegendNANA
17:00 0.6 -1.5 86 30 17   101.45     LegendNANA
18:00 0.2 -1.3 90 32 12   101.43     LegendNANA
19:00 0.2 -1.1 91 33 10   101.41     LegendNANA
20:00 -0.3 -1.2 94 33 13   101.35   -4 LegendNANA
21:00 -1.0 -2.0 93 33 7   101.30   -4 LegendNANA
22:00 -0.1 -1.5 90 33 2   101.25   -1 LegendNANA
23:00 -0.1 -1.0 94 14 3   101.19   -1 LegendNANA

Notes on Data Quality.

Legend

  • E = Estimated
  • M = Missing
  • NA = Not Available
  • ‡ = Partner data that is not subject to review by the National Climate Archives
Date modified: